Regional Weather Roundup
Issued by NWS

Home | Current Version | Previous Version | Text Only | Print | Product List | Glossary On
Versions: 1 2 3 4 5 6 7 8 9 10 11 12 13 14 15 16 17 18 19 20 21 22 23 24 25 26 27 28 29 30 31 32 33 34 35 36 37 38 39 40 41 42 43 44 45 46 47 48 49 50
999
ASUS43 KMKX 212220
RWRWI

WISCONSIN REGIONAL WEATHER ROUNDUP
NATIONAL WEATHER SERVICE MILWAUKEE/SULLIVAN WI
400 PM CST SUN JAN 21 2018

NOTE: "FAIR" INDICATES FEW OR NO CLOUDS BELOW 12,000 FEET WITH NO
SIGNIFICANT WEATHER AND/OR OBSTRUCTIONS TO VISIBILITY.

WIZ001-002-006>008-014>016-023>028-212300-
NORTHWEST WISCONSIN

CITY           SKY/WX    TMP DP  RH WIND       PRES   REMARKS
SUPERIOR ARPT  CLOUDY    30  30  99 NE7       30.02S FOG     WCI  23
ASHLAND        FOG       29  28  96 NE9       30.04R VSB 1/2 WCI  20
HAYWARD        CLOUDY    38  28  67 N3        29.97S
SIREN          CLOUDY    36  28  72 N3        29.97S
CUMBERLAND     CLOUDY    36  28  75 N5        29.95S WCI  32
RICE LAKE      CLOUDY    37  31  78 N5        29.96F WCI  33
CHETEK         CLOUDY    36  30  80 CALM      29.94F
LADYSMITH      CLOUDY    38  31  73 N7        29.96S WCI  33
EAU CLAIRE     CLOUDY    38  30  73 N7        29.92S WCI  33
MENOMONIE      CLOUDY    40  30  68 N7        29.93S WCI  35
NEW RICHMOND   CLOUDY    37  28  71 N5        29.95S WCI  33
OSCEOLA        CLOUDY    37  29  74 N7        29.99R WCI  31
$$

WIZ003>005-009-010-017-018-212300-
NORTH CENTRAL WISCONSIN

CITY           SKY/WX    TMP DP  RH WIND       PRES   REMARKS
MANITOWISH WTR CLOUDY    37  31  81 N3        29.95S
ARBOR VITAE    CLOUDY    37  31  81 CALM      29.95R
WOODRUFF       CLOUDY    37  31  81 CALM      29.95R
RHINELANDER    CLOUDY    38  32  79 CALM      29.95R
EAGLE RIVER    FAIR      36  30  79 CALM      29.95S
LAND O LAKES   CLOUDY    37  30  75 N6        29.97S WCI  33
PHILLIPS       CLOUDY    37  31  80 N6        29.95R WCI  32
TOMAHAWK       CLOUDY    37  30  74 CALM      29.95R
MEDFORD        CLOUDY    38  29  70 N7        29.92R WCI  33
MERRILL        CLOUDY    39  31  73 N5        29.94S
$$

WIZ029-030-035-036-043>047-212300-
CENTRAL WISCONSIN

CITY           SKY/WX    TMP DP  RH WIND       PRES   REMARKS
WAUSAU         FAIR      44  29  55 N5        29.90R
MOSINEE        MOCLDY    39  32  75 NE5       29.92R
MARSHFIELD     MOCLDY    41  31  67 NE7       29.90R
STEVENS POINT  FAIR      41  31  67 NE5       29.92R
WAUPACA        FAIR      44  33  65 NE5       29.93R
WAUTOMA        CLOUDY    41  33  73 E5        29.93R
WISC RAPIDS    FAIR      42  30  62 E5        29.92R
CAMP DOUGLAS   MOCLDY    41  33  73 CALM      29.89S
$$

WIZ011>013-019>022-031-037>040-048>050-212300-
NORTHEAST WISCONSIN

CITY           SKY/WX    TMP DP  RH WIND       PRES   REMARKS
ANTIGO         CLOUDY    37  31  78 NE5       29.93S WCI  33
SHAWANO        FAIR      41  32  70 E5        29.95R
OCONTO         FAIR      38  31  77 NE5       29.96R WCI  34
STURGEON BAY   FOG       34  32  93 E7        29.98R VSB 1/4 WCI  28
GREEN BAY      FAIR      41  33  73 E5        29.95R HAZE
MANITOWOC      LGT RAIN  34  33  96 E3        29.97R VSB<1/4
APPLETON       PTCLDY    39  30  70 VRB5      29.92R FOG
CLINTONVILLE   FAIR      41  32  70 CALM      29.93R
OSHKOSH        FOG       32  32 100 CALM      29.93R VSB<1/4
$$

WIZ032>034-041-042-053>061-212300-
SOUTHWEST WISCONSIN

CITY           SKY/WX    TMP DP  RH WIND       PRES   REMARKS
LA CROSSE      CLOUDY    37  31  78 CALM      29.91R
SPARTA         CLOUDY    41  33  73 CALM      29.91R
VIROQUA        CLOUDY    39  36  89 NE6       29.88R WCI  34
BOSCOBEL       CLOUDY    36  33  89 NE5       29.89S FOG     WCI  32
PRAIRIE DU CHI DRIZZLE   33  32  96 CALM      29.88R
PLATTEVILLE    FAIR      38  38 100 E12       29.85F WCI  30
$$

WIZ056-057-062-063-064-067-068-212300-
SOUTH CENTRAL WISCONSIN

CITY           SKY/WX    TMP DP  RH WIND       PRES   REMARKS
REEDSBURG      CLOUDY    38  34  85 E5        29.89S WCI  35
BARABOO/DELLS  CLOUDY    37  33  85 E6        29.90R WCI  32
LONE ROCK      CLOUDY    37  36  96 E7        29.89S FOG     WCI  32
MINERAL POINT  LGT RAIN  39  39 100 E9        29.86S WCI  33
MADISON        DRZL/FOG  37  36  96 E5        29.91S VSB 1   WCI  33
MIDDLETON      CLOUDY    39  38  97 E3        29.90R
WATERTOWN      DRIZZLE   37  37 100 NE5       29.91R WCI  33
MONROE         FOG       36  36 100 NE8       29.86S VSB 1/4 WCI  29
JANESVILLE     CLOUDY    39  39 100 E7        29.88S FOG     WCI  34
$$

WIZ051-052-058>065-066-070>072-212300-
SOUTHEAST WISCONSIN

CITY           SKY/WX    TMP DP  RH WIND       PRES   REMARKS
MILWAUKEE      LGT RAIN  37  37 100 CALM      29.93R VSB 1/2
WAUKESHA       FOG       36  36 100 NE5       29.92S VSB 3/4 WCI  32
MILWAUKEE/TIMM DRZL/FOG  37  34  87 CALM      29.94R VSB 1
RACINE         FOG       37  37 100 E3        29.93S VSB<1/4
BURLINGTON     CLOUDY    38  37  95 CALM      29.91S FOG
KENOSHA        FOG       37  34  89 E6        29.91S VSB 1/4 WCI  32
FOND DU LAC    FOG       36  33  89 NE3       29.93R VSB 1/4
SHEBOYGAN      FOG       34  34 100 NE5       29.94R VSB 1   WCI  30
WEST BEND      FOG       36  36 100 E3        29.92S VSB 1
JUNEAU         CLOUDY    37  36  95 E3        29.92S FOG
$$

LSZ147-162-212300-
LAKE SUPERIOR

STATION/POSITION TIME  TEMP    WIND        PRES    WAVE
                       AIR SEA DIR/SP/G            HT/PER
                 (UTC) (F)     (DEG/KT/KT) (MB)    (FT/S)
DEVILS ISLAND    2200   30      60/ 12/ 13 1018.3R
SAXON HARBOR     2140   30      30/  7/ 10 1016.6S
$$

LMZ867-665-643>646-212300-
LAKE MICHIGAN

STATION/POSITION TIME  TEMP    WIND        PRES    WAVE
                       AIR SEA DIR/SP/G            HT/PER
                 (UTC) (F)     (DEG/KT/KT) (MB)    (FT/S)
NORTHPORT PIER   2200   33      CALM  /  8 1015.6
KEWAUNEE LAKESHO 2154   34      40/  1/  2 1013.9R
SHEBOYGAN LAKESH 2200   34      10/  7/  7 1014.6R
PORT WASHINGTON  2130   34      30/  4/  5 1014.9S
MILWAUKEE LAKESH 2200   36      10/  5/  5   N/A
KENOSHA   LAKESH 2200   35        CALM     1013.5
$$

TC  - TEMPERATURE IN CELSIUS
VSB - VISIBILITY IN STATUTE MILES
WCI - WIND CHILL INDEX
HX  - HEAT INDEX





USA.gov is the U.S. government's official web portal to all federal, state and local government web resources and services.